星链-32042 (STARLINK-32042 )

导读

STARLINK-32042是美国SpaceX星链互联网项目的卫星,于2024年6月23日发射升空,归属星链低轨星座组网卫星序列。它将依托近地轨道部署,为全球范围内用户提供高速低延迟的宽带互联网服务,完善星链星座的全球覆盖能力,拓展星链在民用通信乃至特定领域的服务覆盖范围与稳定性。

Basic Information
目录编号:
60108
目录名称:
STARLINK-32042
国际标识:
2024-117T
轨道中心:
EARTH
卫星名称:
星链-32042
卫星全名:
星链-32042 (STARLINK-32042 )
卫星状态:
在轨 (已飞行725 天)
发射日期:
2024-06-23 UTC
国别 :
美国 (US)
星等 :
--
Orbit Information
数据来源 国际轨道数据 AOE轨道数据
星历时间 2026-06-17T23:40:42+0800
11小时前
查看轨道信息
2026-06-13T16:00:00+0800
4天前
查看轨道信息
半长轴 6853.356km 6853.351km
偏心率 0.000105 0.000037
轨道倾角 53.161° 53.158°
近地点辐角 90.622° 351.169°
升交点赤经 292.637° 312.706°
平近点角 269.490° 318.458°
近地点 474.499km 474.96km
远地点 475.939km 475.468km
周期 94.105分钟 94.105分钟
每日圈数 15.301989 15.302005
Detailed Information
固有亮度:
5
最大亮度:
1.5
卫星平台:
Starlink v2.0 mini
覆盖范围:
全球
运营商:
太空探索技术公司
运营商所在国:
美国
制造商(研发单位):
太空探索技术公司
制造商所在国:
美国
使用方式:
暂无
Satellite Introduction
星链(Starlink)计划是由太空探索技术公司(SpaceX)提出的一个巨型低轨卫星互联网星座项目,计划在2019年至2024年间在太空搭建由约1.2万颗卫星组成的“星链”网络,其中1584颗将部署在地球上空550千米处的近地轨道,并从2020年开始工作。该卫星仍在工作。
2D Orbit Map
3D Orbit Map
Orbit Altitude Analysis Chart
Orbit Inclination Analysis Chart
Orbit Comprehensive Analysis Chart
View Comprehensive Chart